Home   Weather   Glace Bay   Past weeks

Flag for Canada Past Weather in Glace Bay, Nova Scotia, Canada — Yesterday and Last 2 Weeks

Now
45 °F

Passing clouds.


Feels Like: 40 °F
Forecast: 50 / 65 °F
Wind: 8 mph from West

Location: Sydney

Current Time: Oct 1, 2016 at 4:11:55 AM

Latest Report: Oct 1, 2016 at 3:00 AM


Visibility: 15 mi

Pressure: 30.38 "Hg

Humidity: 93%

Dew Point: 43 °F

Location of Glace BayLocation

Past Weather in Glace Bay — Graph

°F

Glace Bay Temperature Yesterday

Maximum temperature yesterday: 64 °F (at 1:00 PM)
Minimum temperature yesterday: 41 °F (at 6:00 AM)
Average temperature yesterday: 53 °F

High & Low Weather Summary for the Past Weeks

 TemperatureHumidityPressure
High73 °F (Sep 18, 2:00 PM)100% (Sep 16, 3:00 AM)30.44 "Hg (Sep 16, 3:00 AM)
Low36 °F (Sep 25, 5:00 AM)43% (Sep 30, 5:00 PM)29.68 "Hg (Sep 25, 12:00 PM)
Average55 °F84%30.09 "Hg
* Reported Sep 16 3:00 AM — Oct 1 3:00 AM, Glace Bay, Weather by CustomWeather, © 2016

Note: Actual official high and low records may vary slightly from our data, if they occured in-between our weather recording intervals... More about our weather records

Advertising

Glace Bay Weather History for the Previous 24 Hours

Scroll right to see more
 ConditionsComfort  
Time TempWeatherWind HumidityBarometerVisibility
3:00 AM
Sat, Oct 1
45 °FPassing clouds.8 mph93%30.38 "Hg15 mi
2:00 AM46 °FPassing clouds.9 mph87%30.39 "Hg15 mi
1:00 AM43 °FPassing clouds.8 mph100%30.39 "Hg15 mi
12:00 AM46 °FPassing clouds.9 mph87%30.40 "Hg15 mi
11:00 PM
Fri, Sep 30
43 °FClear.6 mph100%30.41 "Hg15 mi
10:00 PM45 °FClear.7 mph93%30.41 "Hg15 mi
9:00 PM48 °FClear.7 mph82%30.41 "Hg15 mi
8:00 PM52 °FPassing clouds.8 mph72%30.41 "Hg15 mi
7:00 PM54 °FPassing clouds.6 mph72%30.40 "Hg15 mi
6:00 PM61 °FPassing clouds.7 mph55%30.39 "Hg15 mi
5:00 PM64 °FPassing clouds.10 mph43%30.39 "Hg15 mi
4:00 PM64 °FPassing clouds.9 mph46%30.39 "Hg15 mi
3:00 PM64 °FPassing clouds.12 mph46%30.39 "Hg15 mi
2:00 PM64 °FPassing clouds.14 mph46%30.41 "Hg15 mi
1:00 PM64 °FPassing clouds.14 mph46%30.42 "Hg15 mi
12:00 PM63 °FPassing clouds.14 mph59%30.42 "Hg15 mi
11:00 AM61 °FPassing clouds.12 mph55%30.42 "Hg15 mi
10:00 AM57 °FPassing clouds.9 mph67%30.43 "Hg15 mi
9:00 AM54 °FPassing clouds.16 mph72%30.44 "Hg15 mi
8:00 AM48 °FPassing clouds.13 mph82%30.43 "Hg15 mi
7:00 AM45 °FScattered clouds.10 mph87%30.43 "Hg15 mi
6:00 AM41 °FPassing clouds.8 mph93%30.42 "Hg15 mi
5:00 AM46 °FPassing clouds.9 mph82%30.43 "Hg15 mi
4:00 AM48 °FPassing clouds.8 mph82%30.42 "Hg15 mi
Weather by CustomWeather, © 2016

See weather overviewHow to use our weather pages